User: anonymous   Login
Location: Firnhaberau
(48.4049°N, 10.8963°E)
Time: 16:28:43
(UTC+00:00)
Language:

Tiangong - Orbit

View from above orbital plane
View from above orbital plane
View from above satellite
View from above satellite

Ground track
Ground track

The orbit data is extracted from the following two-line orbital elements,

1 48274U 21035A   21214.15181738  .00007625  00000-0  85788-4 0  9990
2 48274  41.4710   2.6556 0009293 284.4319 245.2836 15.62808921 14885
Epoch (UTC): 02 August 2021 03:38:37
Eccentricity: 0.0009293
inclination: 41.4710°
perigee height: 373 km
apogee height: 386 km
right ascension of ascending node: 2.6556°
argument of perigee: 284.4319°
revolutions per day: 15.62808921
mean anomaly at epoch: 245.2836°
orbit number at epoch: 1488

The dashed part of the orbit path shows where the satellite is in the earth's shadow,  

DLR